[[{"header":{"parameterUnit":"m.s-1","parameterCategory":1,"la1":30.2991,"la2":30.254,"lo1":-89.0895,"lo2":-89.0444,"dy":0.0017,"dx":0.0017,"nx":28,"ny":28,"refTime":"2024-06-23T21:00:00:Z","depth":0,"parameterNumber":2,"parameterNumberName":"U-component_of_WINDS"},"data":[0,0,0,0,0,0,0,0,0,0,0,0,0,0,0,0,0,0,0,0,0,0,0,0,0,0,0,0,0,0,0,0,0,0,0,0,0,0,0,0,0,0,0,0,0,0,0,0,0,0,0,0,0,0,0,0,0,0,0.6533,0.6534,0,0.6653,0.6655,0.6656,0.6713,0.6713,0.6713,0.6713,0.6836,0.6839,0.6843,0,0,0,0,0,0,0,0,0,0,0,0,0,0.6351,0.6354,0.6533,0.6534,0.6536,0.6653,0.6655,0.6656,0.6713,0.6713,0.6713,0.6712,0.6835,0.6839,0.6843,0,0,0,0,0,0,0,0,0,0,0,0,0,0.6447,0.6355,0.6533,0.6578,0.6583,0.6653,0.6655,0.6657,0.6713,0.6713,0.6713,0.6712,0.6834,0.6838,0.6843,0.6877,0,0,0.6859,0.6861,0,0,0,0,0,0,0,0,0.6441,0.6453,0.657,0.6575,0.6581,0.6668,0.6636,0.6731,0.6713,0.6664,0.6713,0.6712,0.678,0.679,0.6812,0.6882,0.6888,0.6859,0.6862,0.6864,0.6866,0,0,0,0,0,0,0,0.6435,0.6448,0.6581,0.6572,0.6578,0.6592,0.6606,0.6654,0.6721,0.6668,0.6672,0.6686,0.6783,0.6807,0.6816,0.689,0.6859,0.6864,0.6867,0.6869,0.6993,0.6993,0,0,0,0,0,0,0.6421,0.6443,0.6577,0.6584,0.651,0.6596,0.6611,0.664,0.6721,0.6733,0.6686,0.6688,0.6799,0.681,0.682,0.6865,0.6864,0.6869,0.6872,0.6992,0.6993,0.6993,0,0,0,0,0,0,0.6416,0.6432,0.6572,0.6515,0.6534,0.6599,0.6632,0.6643,0.6667,0.6734,0.6746,0.6698,0.6799,0.6813,0.6862,0.687,0.6871,0.6876,0.6992,0.6992,0.6993,0.6953,0,0,0,0,0,0,0.6411,0.643,0.6444,0.6515,0.6536,0.6612,0.6632,0.6645,0.6675,0.6679,0.6749,0.6761,0.68,0.6854,0.6867,0.6877,0.688,0.6992,0.6992,0.6993,0.6954,0.6952,0.695,0,0,0,0,0,0.6404,0.6428,0.6444,0.646,0.6555,0.6612,0.6625,0.667,0.6676,0.669,0.6733,0.6758,0.6866,0.6859,0.6874,0.6885,0.6991,0.6992,0.6993,0.6955,0.6952,0.695,0,0,0,0,0,0,0.6356,0.6438,0.6457,0.6504,0.6551,0.6622,0.6641,0.6666,0.6712,0.6714,0.6768,0.6783,0.6827,0.6861,0.6851,0.6921,0.6931,0.6935,0.6897,0.6896,0.6894,0.6885,0.6884,0,0,0,0,0,0.6351,0.6391,0.646,0.6495,0.6518,0.6575,0.6602,0.6632,0.6683,0.6703,0.675,0.6797,0.6842,0.6871,0.6916,0.6959,0.6975,0.6974,0.6972,0.697,0.6973,0.6998,0.6998,0.6995,0.6995,0.6995,0,0,0.6341,0.639,0.6413,0.6487,0.6527,0.6567,0.6591,0.6633,0.6663,0.6709,0.6758,0.6794,0.6851,0.6897,0.692,0.6927,0.6977,0.6971,0.6969,0.6973,0.6999,0.6999,0.6999,0.6995,0.6995,0.6995,0,0,0.6343,0.6384,0.6418,0.6457,0.6517,0.6555,0.6563,0.663,0.6655,0.6705,0.6741,0.6777,0.6854,0.6893,0.6923,0.6938,0.6964,0.6951,0.6942,0.6966,0.6967,0.6967,0.6973,0.6974,0.6954,0.6954,0.6954,0,0.6323,0.6385,0.6432,0.6472,0.6503,0.6546,0.6581,0.6616,0.6688,0.6708,0.6715,0.6811,0.6853,0.6908,0.6912,0.6935,0.6945,0.6944,0.6963,0.6964,0.6965,0.6971,0.6973,0.6952,0.6952,0.6952,0.6952,0,0.6357,0.64,0.642,0.6487,0.6521,0.6557,0.661,0.6638,0.6665,0.6702,0.6752,0.6804,0.686,0.6875,0.6902,0.6934,0.6937,0.6952,0.6964,0.6963,0.6969,0.6972,0.6949,0.695,0.695,0.6951,0,0,0.6334,0.6426,0.6433,0.6464,0.6533,0.6566,0.6604,0.6659,0.6682,0.673,0.6763,0.6826,0.684,0.6874,0.6906,0.6927,0.6936,0.694,0.6942,0.6938,0.6975,0.6963,0.6965,0.6953,0.6953,0.6954,0.697,0,0.6346,0.6417,0.646,0.6513,0.6553,0.6594,0.6627,0.6673,0.6708,0.6746,0.6785,0.6829,0.6845,0.6866,0.6888,0.693,0.6944,0.693,0.6985,0.6986,0.697,0.6969,0.6957,0.697,0.6973,0.6974,0.6974,0,0.637,0.6416,0.6473,0.6537,0.6555,0.6584,0.6638,0.6674,0.6726,0.675,0.6787,0.6819,0.6861,0.6868,0.6927,0.6915,0.694,0.6964,0.6966,0.6973,0.698,0.6977,0.6975,0.6977,0.6979,0.6978,0.6978,0,0.6347,0.6423,0.6468,0.6493,0.6568,0.6588,0.662,0.6672,0.6702,0.6748,0.6768,0.6819,0.6846,0.6885,0.6929,0.693,0.6983,0.6994,0.7004,0.7003,0.7015,0.7013,0.7017,0.7029,0.7029,0.7029,0.7029,0,0.6356,0.6389,0.6458,0.6485,0.6524,0.6573,0.6609,0.6645,0.6691,0.6726,0.6764,0.6796,0.6852,0.6891,0.6926,0.6969,0.6981,0.7002,0.7011,0.6999,0.6996,0.7016,0.7017,0.703,0.703,0.703,0.7029,0,0.6338,0.6385,0.6436,0.6503,0.6521,0.6546,0.6603,0.6631,0.6668,0.6711,0.6724,0.6782,0.6829,0.6877,0.6941,0.6965,0.7007,0.7019,0.6989,0.6994,0.7002,0.7001,0.702,0.7025,0.7032,0.7032,0.7032,0,0.6341,0.6367,0.6437,0.6463,0.6495,0.6536,0.6567,0.6615,0.6645,0.6706,0.6727,0.6777,0.682,0.6893,0.6941,0.699,0.7004,0.7007,0.7011,0.6998,0.7004,0.7002,0.7005,0.7005,0.7005,0.7005,0.7004,0,0.6341,0.6363,0.6406,0.6457,0.6492,0.6534,0.6578,0.6597,0.6654,0.6686,0.6735,0.6768,0.6833,0.6882,0.6936,0.6969,0.6996,0.7002,0.7007,0.6996,0.6978,0.6988,0.6985,0.7002,0.7002,0.7002,0.7003,0.7003,0.6334,0.636,0.6413,0.6459,0.6497,0.6537,0.6566,0.6606,0.6648,0.6704,0.673,0.6779,0.683,0.6906,0.6938,0.6977,0.6985,0.6992,0.6994,0.6995,0.6992,0.6971,0.6987,0.6988,0.6988,0.6988,0.6988,0,0.6337,0.6373,0.6415,0.6475,0.6511,0.6533,0.6582,0.6611,0.6653,0.6698,0.6739,0.6795,0.6843,0.6894,0.6944,0.6966,0.6979,0.6977,0.6977,0.6984,0.6983,0.6974,0.6965,0.6965,0.6965,0.6965,0.6965,0.6965,0.6343,0.6388,0.6415,0.6479,0.6515,0.6563,0.6589,0.6626,0.6662,0.6722,0.6762,0.6795,0.6843,0.6897,0.6941,0.6955,0.6972,0.6967,0.6984,0.6982,0.6984,0.6986,0.6977,0.697,0.697,0.6982,0.6982,0.6982]},{"header":{"parameterUnit":"m.s-1","parameterCategory":1,"la1":30.2991,"la2":30.254,"lo1":-89.0895,"lo2":-89.0444,"dy":0.0017,"dx":0.0017,"nx":28,"ny":28,"refTime":"2024-06-23T21:00:00:Z","depth":0,"parameterNumber":3,"parameterNumberName":"V-component_of_WINDS"},"data":[0,0,0,0,0,0,0,0,0,0,0,0,0,0,0,0,0,0,0,0,0,0,0,0,0,0,0,0,0,0,0,0,0,0,0,0,0,0,0,0,0,0,0,0,0,0,0,0,0,0,0,0,0,0,0,0,0,0,3.7844,3.7844,0,3.7793,3.7793,3.7792,3.7749,3.7749,3.7748,3.7748,3.769,3.7689,3.7688,0,0,0,0,0,0,0,0,0,0,0,0,0,3.79,3.7899,3.7844,3.7843,3.7843,3.7793,3.7793,3.7792,3.7749,3.7749,3.7748,3.7748,3.7691,3.769,3.7688,0,0,0,0,0,0,0,0,0,0,0,0,0,3.7865,3.7899,3.7844,3.7816,3.7813,3.7794,3.7793,3.7792,3.7749,3.7749,3.7748,3.7747,3.7691,3.769,3.7688,3.7692,0,0,3.7683,3.7682,0,0,0,0,0,0,0,0,3.7867,3.7863,3.782,3.7818,3.7814,3.7777,3.7791,3.7758,3.7749,3.7773,3.7748,3.7747,3.7719,3.7715,3.7707,3.7689,3.7686,3.7683,3.7682,3.7681,3.7681,0,0,0,0,0,0,0,3.7869,3.7865,3.7824,3.782,3.7816,3.7804,3.7798,3.7785,3.7751,3.7771,3.7768,3.7763,3.7717,3.7709,3.7706,3.7686,3.7683,3.7681,3.768,3.768,3.7667,3.7668,0,0,0,0,0,0,3.7877,3.7867,3.7825,3.7822,3.784,3.7804,3.7797,3.7789,3.7751,3.7744,3.7763,3.7761,3.7712,3.7708,3.7703,3.7705,3.7681,3.768,3.7679,3.7667,3.7667,3.7668,0,0,0,0,0,0,3.7878,3.7873,3.7827,3.7844,3.7837,3.7803,3.7795,3.7789,3.778,3.7745,3.7738,3.7761,3.7711,3.7706,3.7695,3.7702,3.7679,3.7677,3.7666,3.7667,3.7668,3.7708,0,0,0,0,0,0,3.788,3.7874,3.7876,3.7844,3.7836,3.7822,3.7795,3.7788,3.7778,3.7774,3.7741,3.7735,3.771,3.7698,3.7694,3.77,3.7676,3.7665,3.7666,3.7667,3.7706,3.771,3.7714,0,0,0,0,0,3.7882,3.7889,3.7877,3.7872,3.7839,3.7822,3.7818,3.7791,3.7779,3.778,3.7757,3.7736,3.7702,3.7697,3.7692,3.7698,3.7664,3.7666,3.7667,3.7704,3.771,3.7714,0,0,0,0,0,0,3.792,3.7884,3.787,3.7867,3.7848,3.7815,3.7816,3.7797,3.778,3.7777,3.7743,3.7736,3.7729,3.7712,3.7707,3.7699,3.768,3.7681,3.771,3.7715,3.7719,3.7723,3.7675,0,0,0,0,0,3.7929,3.792,3.7888,3.7888,3.788,3.785,3.7841,3.7823,3.7801,3.7793,3.7769,3.7748,3.7732,3.7723,3.7707,3.7704,3.7695,3.7705,3.7709,3.7712,3.7713,3.771,3.7713,3.7673,3.7673,3.7673,0,0,3.7945,3.7924,3.7921,3.7895,3.7879,3.7869,3.7843,3.7834,3.7826,3.779,3.778,3.7762,3.7735,3.7729,3.7725,3.7714,3.7722,3.7714,3.7717,3.7716,3.7712,3.7715,3.7719,3.7674,3.7674,3.7674,0,0,3.7971,3.7955,3.7953,3.7937,3.7913,3.7893,3.7893,3.7863,3.785,3.7839,3.7812,3.7801,3.7776,3.7758,3.7746,3.7766,3.7745,3.7761,3.7782,3.778,3.7783,3.7786,3.7792,3.7795,3.7762,3.7762,3.7762,0,3.7994,3.798,3.7954,3.7947,3.7936,3.7906,3.7903,3.7888,3.786,3.7852,3.7842,3.7809,3.7789,3.7778,3.7783,3.7775,3.7772,3.7765,3.7785,3.7787,3.7789,3.7795,3.7798,3.7764,3.7764,3.7764,3.7764,0,3.801,3.8001,3.8002,3.7977,3.7967,3.7962,3.7933,3.7926,3.7908,3.7889,3.7877,3.7853,3.7831,3.7827,3.7809,3.7813,3.7808,3.7792,3.7772,3.7796,3.7801,3.7803,3.7768,3.7767,3.7766,3.7766,0,0,3.8057,3.8019,3.802,3.8008,3.798,3.7971,3.7965,3.7945,3.7939,3.792,3.7913,3.7893,3.7878,3.7864,3.7844,3.7841,3.7858,3.7825,3.7824,3.7832,3.7861,3.7873,3.7876,3.7845,3.7845,3.7845,3.7863,0,3.8078,3.8067,3.8043,3.8038,3.8029,3.8,3.7994,3.7975,3.7957,3.7945,3.7924,3.791,3.7892,3.7883,3.788,3.7857,3.7864,3.7855,3.7836,3.7836,3.7844,3.7879,3.7892,3.7909,3.7865,3.7865,3.7865,0,3.81,3.8085,3.808,3.8053,3.8048,3.8043,3.8024,3.8014,3.7991,3.7978,3.7964,3.7942,3.7932,3.7915,3.79,3.7895,3.7886,3.7873,3.7873,3.787,3.7852,3.7876,3.7914,3.7917,3.7868,3.7868,3.7868,0,3.8135,3.8114,3.8108,3.8099,3.8066,3.8064,3.805,3.8027,3.8017,3.8,3.7993,3.7974,3.7963,3.7948,3.7921,3.7911,3.7909,3.789,3.7897,3.7897,3.7897,3.7897,3.7934,3.7892,3.7892,3.7892,3.7892,0,3.8161,3.8158,3.8123,3.812,3.8116,3.8088,3.8085,3.8068,3.8048,3.804,3.8013,3.8005,3.797,3.7958,3.7937,3.7928,3.7923,3.7911,3.7905,3.7913,3.7915,3.7906,3.7904,3.7893,3.7892,3.7892,3.7892,0,3.8199,3.8175,3.8167,3.8138,3.813,3.8129,3.8103,3.8098,3.8079,3.8068,3.8064,3.8033,3.8018,3.799,3.7965,3.7951,3.7946,3.7936,3.7954,3.795,3.7959,3.7958,3.7991,3.7994,3.7951,3.7951,3.7951,0,3.8216,3.8214,3.8185,3.8179,3.8167,3.8156,3.8146,3.8119,3.8109,3.8084,3.8081,3.8064,3.8049,3.8025,3.7999,3.798,3.797,3.7982,3.7966,3.7975,3.7969,3.797,3.7969,3.7986,3.7986,3.7987,3.7987,0,3.825,3.8238,3.8226,3.8211,3.82,3.8186,3.817,3.8165,3.8134,3.8124,3.8109,3.8097,3.8074,3.8056,3.8034,3.8018,3.7997,3.7993,3.7993,3.8001,3.8012,3.8006,3.7963,3.7992,3.7991,3.7991,3.7991,3.7991,3.8278,3.8275,3.8254,3.8242,3.8227,3.8213,3.8207,3.8188,3.8175,3.8155,3.8139,3.8125,3.8102,3.807,3.8055,3.8043,3.8033,3.8034,3.8034,3.8034,3.8038,3.8014,3.8038,3.8038,3.8038,3.8038,3.8038,0,3.831,3.8295,3.8284,3.8264,3.8254,3.8237,3.8219,3.8211,3.8199,3.8181,3.8167,3.8149,3.8132,3.8106,3.8087,3.8082,3.8072,3.8077,3.8077,3.8074,3.8047,3.8049,3.8086,3.8086,3.8086,3.8086,3.8086,3.8086,3.8325,3.8319,3.8306,3.8292,3.8277,3.8265,3.8255,3.8242,3.8227,3.8209,3.8196,3.8179,3.8157,3.8136,3.812,3.8112,3.8106,3.8115,3.8104,3.808,3.8076,3.8071,3.8072,3.8114,3.8114,3.8132,3.8132,3.8132]}]]